| time (UTC) | temp F | wind direction | speed MPH | gust MPH | rain 1hr in | rain 24hr in | rain mn in | humidity % | barometer mb |
| 20260903182146 | 81 | 289 | 5.0 | 10.0 | 0.00 | 0.00 | 0.00 | 76 | 1019.0 |
| 20260903181247 | 80 | 279 | 6.0 | 13.0 | 0.00 | 0.00 | 0.00 | 76 | 1019.2 |
| 20260903180346 | 80 | 283 | 8.0 | 15.0 | 0.00 | 0.00 | 0.00 | 76 | 1019.3 |
| 20260903175446 | 80 | 294 | 6.0 | 14.0 | 0.00 | 0.00 | 0.00 | 76 | 1019.3 |
| 20260903174546 | 80 | 281 | 8.0 | 15.0 | 0.00 | 0.00 | 0.00 | 77 | 1019.3 |
| 20260903173646 | 79 | 274 | 7.0 | 14.0 | 0.00 | 0.00 | 0.00 | 76 | 1019.4 |
| 20260903171846 | 79 | 284 | 6.0 | 12.0 | 0.00 | 0.00 | 0.00 | 77 | 1019.5 |
| 20260903170946 | 79 | 282 | 7.0 | 13.0 | 0.00 | 0.00 | 0.00 | 78 | 1019.4 |
| 20260903170046 | 79 | 289 | 7.0 | 13.0 | 0.00 | 0.00 | 0.00 | 78 | 1019.6 |
| 20260903165147 | 80 | 296 | 5.0 | 13.0 | 0.00 | 0.00 | 0.00 | 78 | 1019.5 |
| 20260903164245 | 80 | 276 | 5.0 | 12.0 | 0.00 | 0.00 | 0.00 | 78 | 1019.6 |
| 20260903163345 | 79 | 272 | 5.0 | 11.0 | 0.00 | 0.00 | 0.00 | 80 | 1019.7 |
| 20260903162446 | 78 | 281 | 6.0 | 12.0 | 0.00 | 0.00 | 0.00 | 83 | 1019.8 |
| 20260903160646 | 78 | 262 | 4.0 | 11.0 | 0.00 | 0.00 | 0.00 | 84 | 1020.2 |
| 20260903155745 | 77 | 265 | 4.0 | 11.0 | 0.00 | 0.00 | 0.00 | 84 | 1020.1 |
| 20260903154846 | 77 | 275 | 4.0 | 9.0 | 0.00 | 0.00 | 0.00 | 86 | 1020.2 |
| 20260903153048 | 76 | 270 | 5.0 | 9.0 | 0.00 | 0.00 | 0.00 | 86 | 1020.3 |
| 20260903152147 | 76 | 268 | 4.0 | 10.0 | 0.00 | 0.00 | 0.00 | 87 | 1020.2 |
| 20260903151246 | 75 | 239 | 5.0 | 12.0 | 0.00 | 0.00 | 0.00 | 88 | 1020.6 |
| 20260903145446 | 75 | 260 | 5.0 | 11.0 | 0.00 | 0.00 | 0.00 | 87 | 1020.7 |
| 20260903144546 | 75 | 257 | 5.0 | 11.0 | 0.00 | 0.00 | 0.00 | 87 | 1020.5 |
| 20260903143646 | 75 | 240 | 4.0 | 12.0 | 0.00 | 0.00 | 0.00 | 88 | 1020.3 |
| 20260903142746 | 75 | 256 | 4.0 | 9.0 | 0.00 | 0.00 | 0.00 | 90 | 1020.4 |
| 20260903141845 | 74 | 245 | 4.0 | 9.0 | 0.00 | 0.00 | 0.00 | 91 | 1020.6 |
| 20260903140945 | 73 | 241 | 4.0 | 9.0 | 0.00 | 0.00 | 0.00 | 93 | 1020.7 |
| 20260903140047 | 73 | 198 | 3.0 | 5.0 | 0.00 | 0.00 | 0.00 | 94 | 1020.5 |
| 20260903135145 | 72 | 222 | 2.0 | 4.0 | 0.00 | 0.00 | 0.00 | 95 | 1020.8 |
| 20260903133346 | 71 | 216 | 3.0 | 6.0 | 0.00 | 0.00 | 0.00 | 95 | 1020.7 |
| 20260903132446 | 71 | 251 | 2.0 | 6.0 | 0.00 | 0.00 | 0.00 | 95 | 1021.2 |
| 20260903130646 | 71 | 246 | 3.0 | 8.0 | 0.00 | 0.00 | 0.00 | 95 | 1021.3 |
| 20260903124846 | 71 | 237 | 0.0 | 3.0 | 0.00 | 0.00 | 0.00 | 95 | 1021.4 |
| 20260903123946 | 71 | 258 | 1.0 | 3.0 | 0.00 | 0.00 | 0.00 | 96 | 1021.5 |
| 20260903123046 | 71 | 268 | 0.0 | 3.0 | 0.00 | 0.00 | 0.00 | 96 | 1021.7 |
| 20260903121246 | 71 | 280 | 0.0 | 2.0 | 0.00 | 0.00 | 0.00 | 96 | 1021.6 |
| 20260903120346 | 71 | 0 | 0.0 | 0.0 | 0.00 | 0.00 | 0.00 | 96 | 1021.4 |
| 20260903115445 | 70 | 0 | 0.0 | 0.0 | 0.00 | 0.00 | 0.00 | 96 | 1021.5 |
| 20260903113647 | 70 | 0 | 0.0 | 0.0 | 0.00 | 0.00 | 0.00 | 96 | 1021.6 |
| 20260903112745 | 70 | 0 | 0.0 | 0.0 | 0.00 | 0.00 | 0.00 | 96 | 1021.6 |
| 20260903110945 | 70 | 273 | 0.0 | 2.0 | 0.00 | 0.00 | 0.00 | 96 | 1021.9 |
| 20260903105145 | 70 | 261 | 2.0 | 5.0 | 0.00 | 0.00 | 0.00 | 96 | 1022.1 |
| 20260903104245 | 70 | 226 | 1.0 | 3.0 | 0.00 | 0.00 | 0.00 | 96 | 1021.6 |
| 20260903102445 | 69 | 235 | 2.0 | 5.0 | 0.00 | 0.00 | 0.00 | 96 | 1021.4 |
| 20260903101546 | 69 | 257 | 1.0 | 4.0 | 0.00 | 0.00 | 0.00 | 96 | 1021.4 |
| 20260903100645 | 69 | 267 | 1.0 | 5.0 | 0.00 | 0.00 | 0.00 | 96 | 1021.4 |
| 20260903095745 | 69 | 261 | 1.0 | 5.0 | 0.00 | 0.00 | 0.00 | 96 | 1021.2 |
| 20260903093946 | 69 | 236 | 0.0 | 4.0 | 0.00 | 0.00 | 0.00 | 96 | 1020.8 |
| 20260903093045 | 69 | 0 | 0.0 | 0.0 | 0.00 | 0.00 | 0.00 | 96 | 1020.6 |
| 20260903091245 | 69 | 213 | 1.0 | 4.0 | 0.00 | 0.00 | 0.00 | 96 | 1020.8 |
| 20260903090346 | 69 | 228 | 1.0 | 5.0 | 0.00 | 0.00 | 0.00 | 96 | 1020.9 |
| 20260903084545 | 69 | 193 | 1.0 | 5.0 | 0.00 | 0.00 | 0.00 | 96 | 1021.0 |
| 20260903082745 | 69 | 177 | 2.0 | 4.0 | 0.00 | 0.00 | 0.00 | 96 | 1021.3 |
| 20260903081846 | 69 | 191 | 1.0 | 4.0 | 0.00 | 0.00 | 0.00 | 96 | 1021.5 |
| 20260903080945 | 69 | 0 | 0.0 | 0.0 | 0.00 | 0.00 | 0.00 | 95 | 1021.6 |
| 20260903080046 | 69 | 183 | 0.0 | 2.0 | 0.00 | 0.00 | 0.00 | 95 | 1021.8 |
| 20260903073345 | 69 | 283 | 2.0 | 4.0 | 0.00 | 0.00 | 0.00 | 95 | 1022.4 |
| 20260903072446 | 69 | 278 | 2.0 | 4.0 | 0.00 | 0.00 | 0.00 | 95 | 1022.4 |
| 20260903071545 | 69 | 269 | 2.0 | 4.0 | 0.00 | 0.00 | 0.00 | 95 | 1022.2 |
| 20260903070645 | 69 | 293 | 3.0 | 6.0 | 0.00 | 0.00 | 0.00 | 95 | 1022.1 |
| 20260903065746 | 69 | 304 | 2.0 | 6.0 | 0.00 | 0.00 | 0.00 | 95 | 1022.1 |
| 20260903063946 | 69 | 90 | 0.0 | 1.0 | 0.00 | 0.00 | 0.00 | 95 | 1021.8 |
| 20260903063045 | 69 | 125 | 0.0 | 3.0 | 0.00 | 0.00 | 0.00 | 95 | 1021.9 |
| 20260903062146 | 69 | 114 | 2.0 | 6.0 | 0.00 | 0.00 | 0.00 | 95 | 1022.0 |
| 20260903061245 | 69 | 122 | 1.0 | 6.0 | 0.00 | 0.00 | 0.00 | 95 | 1022.2 |
| 20260903060346 | 69 | 159 | 1.0 | 3.0 | 0.00 | 0.00 | 0.00 | 95 | 1022.8 |
| 20260903054545 | 69 | 261 | 0.0 | 2.0 | 0.00 | 0.00 | 0.00 | 95 | 1023.2 |
| 20260903053645 | 69 | 0 | 0.0 | 0.0 | 0.00 | 0.00 | 0.00 | 95 | 1023.4 |
| 20260903052746 | 69 | 0 | 0.0 | 0.0 | 0.00 | 0.00 | 0.00 | 95 | 1023.6 |
| 20260903051845 | 69 | 223 | 0.0 | 2.0 | 0.00 | 0.00 | 0.00 | 95 | 1023.7 |
| 20260903050945 | 68 | 225 | 0.0 | 2.0 | 0.00 | 0.00 | 0.00 | 95 | 1023.7 |
| 20260903050046 | 68 | 153 | 0.0 | 2.0 | 0.00 | 0.00 | 0.00 | 95 | 1023.6 |
| 20260903045146 | 68 | 156 | 1.0 | 2.0 | 0.00 | 0.00 | 0.00 | 95 | 1023.7 |
| 20260903044245 | 68 | 182 | 0.0 | 2.0 | 0.00 | 0.00 | 0.00 | 95 | 1023.9 |
| 20260903043346 | 68 | 141 | 0.0 | 2.0 | 0.00 | 0.00 | 0.00 | 95 | 1023.8 |
| 20260903042447 | 68 | 0 | 0.0 | 0.0 | 0.00 | 0.00 | 0.00 | 95 | 1024.1 |
| 20260903040645 | 68 | 127 | 0.0 | 1.0 | 0.00 | 0.00 | 0.00 | 94 | 1024.3 |
| 20260903035746 | 68 | 0 | 0.0 | 0.0 | 0.00 | 0.00 | 0.00 | 94 | 1024.2 |
| 20260903034845 | 67 | 0 | 0.0 | 0.0 | 0.00 | 0.00 | 0.00 | 94 | 1024.1 |
| 20260903033945 | 67 | 101 | 0.0 | 2.0 | 0.00 | 0.00 | 0.00 | 94 | 1023.9 |
| 20260903033045 | 67 | 94 | 1.0 | 4.0 | 0.00 | 0.00 | 0.00 | 94 | 1023.9 |
| 20260903032145 | 67 | 105 | 1.0 | 3.0 | 0.00 | 0.00 | 0.00 | 94 | 1024.1 |
| 20260903031245 | 67 | 106 | 2.0 | 4.0 | 0.00 | 0.00 | 0.00 | 94 | 1024.3 |
| 20260903030345 | 67 | 104 | 3.0 | 6.0 | 0.00 | 0.00 | 0.00 | 94 | 1024.6 |
| 20260903025446 | 67 | 109 | 4.0 | 7.0 | 0.00 | 0.00 | 0.00 | 94 | 1024.6 |
| 20260903024546 | 67 | 105 | 4.0 | 7.0 | 0.00 | 0.00 | 0.00 | 94 | 1024.5 |
| 20260903023645 | 67 | 105 | 3.0 | 7.0 | 0.00 | 0.00 | 0.00 | 94 | 1024.6 |
| 20260903022747 | 67 | 100 | 3.0 | 6.0 | 0.00 | 0.00 | 0.00 | 94 | 1024.5 |
| 20260903021845 | 67 | 95 | 2.0 | 4.0 | 0.00 | 0.00 | 0.00 | 94 | 1024.6 |
| 20260903020946 | 67 | 102 | 2.0 | 4.0 | 0.00 | 0.00 | 0.00 | 94 | 1024.6 |
| 20260903020046 | 67 | 110 | 0.0 | 2.0 | 0.00 | 0.00 | 0.00 | 94 | 1024.8 |
| 20260903015146 | 67 | 104 | 1.0 | 4.0 | 0.00 | 0.00 | 0.00 | 94 | 1025.1 |
| 20260903014245 | 67 | 97 | 2.0 | 4.0 | 0.00 | 0.00 | 0.00 | 94 | 1024.8 |
| 20260903013345 | 67 | 102 | 4.0 | 6.0 | 0.00 | 0.00 | 0.00 | 94 | 1025.0 |
| 20260903012445 | 67 | 98 | 4.0 | 7.0 | 0.00 | 0.00 | 0.00 | 94 | 1025.0 |
| 20260903011545 | 67 | 103 | 3.0 | 5.0 | 0.00 | 0.00 | 0.00 | 94 | 1025.3 |
| 20260903010646 | 67 | 101 | 1.0 | 4.0 | 0.00 | 0.00 | 0.00 | 94 | 1025.5 |
| 20260903005745 | 67 | 0 | 0.0 | 0.0 | 0.00 | 0.00 | 0.00 | 94 | 1026.0 |
| 20260903004845 | 67 | 93 | 2.0 | 4.0 | 0.00 | 0.00 | 0.00 | 94 | 1025.7 |
| 20260903003946 | 67 | 100 | 2.0 | 5.0 | 0.00 | 0.00 | 0.00 | 94 | 1025.3 |
| 20260903003046 | 67 | 100 | 3.0 | 6.0 | 0.00 | 0.00 | 0.00 | 94 | 1025.2 |
| 20260903002146 | 67 | 103 | 4.0 | 7.0 | 0.00 | 0.00 | 0.00 | 94 | 1025.0 |
| 20260903001246 | 67 | 103 | 3.0 | 7.0 | 0.00 | 0.00 | 0.00 | 93 | 1024.6 |
| 20260903000347 | 67 | 91 | 3.0 | 7.0 | 0.00 | 0.00 | 0.00 | 93 | 1024.7 |
| 20260902235446 | 67 | 86 | 4.0 | 7.0 | 0.00 | 0.00 | 0.00 | 94 | 1024.8 |
| 20260902234546 | 67 | 81 | 3.0 | 6.0 | 0.00 | 0.00 | 0.00 | 94 | 1024.8 |
| 20260902232745 | 67 | 90 | 5.0 | 8.0 | 0.00 | 0.00 | 0.00 | 94 | 1024.9 |
| 20260902231845 | 67 | 88 | 4.0 | 7.0 | 0.00 | 0.00 | 0.00 | 93 | 1025.0 |
| 20260902230045 | 67 | 84 | 2.0 | 6.0 | 0.00 | 0.00 | 0.00 | 93 | 1025.8 |
| 20260902225145 | 67 | 94 | 3.0 | 6.0 | 0.00 | 0.00 | 0.00 | 93 | 1025.9 |
| 20260902224245 | 67 | 95 | 3.0 | 8.0 | 0.00 | 0.00 | 0.00 | 93 | 1026.0 |
| 20260902223345 | 67 | 93 | 3.0 | 5.0 | 0.00 | 0.00 | 0.00 | 93 | 1026.1 |
| 20260902222445 | 67 | 82 | 3.0 | 5.0 | 0.00 | 0.00 | 0.00 | 93 | 1026.1 |
| 20260902221545 | 67 | 89 | 2.0 | 4.0 | 0.00 | 0.00 | 0.00 | 93 | 1026.2 |
| 20260902220646 | 66 | 106 | 3.0 | 6.0 | 0.00 | 0.00 | 0.00 | 93 | 1025.9 |
| 20260902215745 | 66 | 103 | 4.0 | 6.0 | 0.00 | 0.00 | 0.00 | 93 | 1026.1 |
| 20260902213946 | 66 | 83 | 2.0 | 6.0 | 0.00 | 0.00 | 0.00 | 93 | 1026.3 |
| 20260902213045 | 66 | 69 | 4.0 | 7.0 | 0.00 | 0.00 | 0.00 | 93 | 1025.9 |
| 20260902212146 | 66 | 80 | 5.0 | 9.0 | 0.00 | 0.00 | 0.00 | 93 | 1025.7 |
| 20260902211246 | 66 | 101 | 5.0 | 12.0 | 0.00 | 0.00 | 0.00 | 93 | 1025.5 |
| 20260902210345 | 66 | 112 | 5.0 | 12.0 | 0.00 | 0.00 | 0.00 | 93 | 1025.4 |
| 20260902205445 | 66 | 107 | 6.0 | 9.0 | 0.00 | 0.00 | 0.00 | 93 | 1025.5 |
| 20260902204546 | 66 | 103 | 5.0 | 10.0 | 0.00 | 0.00 | 0.00 | 93 | 1025.8 |
| 20260902203645 | 66 | 98 | 3.0 | 9.0 | 0.00 | 0.00 | 0.00 | 92 | 1025.9 |
| 20260902202745 | 66 | 106 | 3.0 | 8.0 | 0.00 | 0.00 | 0.00 | 92 | 1026.2 |
| 20260902201846 | 66 | 91 | 4.0 | 8.0 | 0.00 | 0.00 | 0.00 | 91 | 1026.1 |
| 20260902200946 | 67 | 90 | 2.0 | 6.0 | 0.00 | 0.00 | 0.00 | 89 | 1026.3 |
| 20260902195145 | 68 | 61 | 3.0 | 5.0 | 0.00 | 0.00 | 0.00 | 85 | 1026.5 |
| 20260902194245 | 70 | 350 | 5.0 | 8.0 | 0.00 | 0.00 | 0.00 | 79 | 1026.9 |
| 20260902193345 | 71 | 56 | 3.0 | 6.0 | 0.00 | 0.00 | 0.00 | 78 | 1026.4 |
| 20260902192446 | 71 | 94 | 5.0 | 9.0 | 0.00 | 0.00 | 0.00 | 79 | 1025.9 |
| 20260902190645 | 71 | 108 | 6.0 | 11.0 | 0.00 | 0.00 | 0.00 | 76 | 1026.0 |
| 20260902185745 | 71 | 89 | 7.0 | 13.0 | 0.00 | 0.00 | 0.00 | 76 | 1026.2 |
| 20260902184845 | 72 | 106 | 7.0 | 12.0 | 0.00 | 0.00 | 0.00 | 75 | 1026.1 |
| 20260902183945 | 72 | 91 | 7.0 | 13.0 | 0.00 | 0.00 | 0.00 | 74 | 1025.9 |